Voltar ao catálogo

STARLINK-37074

AtivoComunicaçõesVLEO
NORAD 68073·PAYLOAD·🇺🇸 United States

Lançado Mar 4, 2026 de Vandenberg Space Force Base

Loading…

Próximas Passagens (próximas 24 horas)

TLE

AtualizadoSource: CelesTrak SupGP

Época: Sep 14, 2026, 22:45 UTC

1 68073C 26042E   26257.94840278 -.00010112  00000+0 -29884-3 0  2579
2 68073  53.1603  15.5437 0001284  79.2693 117.7601 15.34387296    12

Acompanhe STARLINK-37074 em tempo real com AllMySat

Download on the App Store